| time (UTC) | temp F | wind direction | speed MPH | gust MPH | rain 1hr in | rain 24hr in | rain mn in | humidity % | barometer mb |
| 20260504175050 | 67 | 123 | 4.0 | 14.0 | 0.00 | 0.00 | 0.00 | 36 | 1007.7 |
| 20260504174549 | 66 | 122 | 4.0 | 11.0 | 0.00 | 0.00 | 0.00 | 36 | 1007.6 |
| 20260504174048 | 67 | 116 | 4.0 | 12.0 | 0.00 | 0.00 | 0.00 | 37 | 1007.8 |
| 20260504173548 | 66 | 110 | 4.0 | 18.0 | 0.00 | 0.00 | 0.00 | 38 | 1007.7 |
| 20260504173106 | 66 | 138 | 4.0 | 18.0 | 0.00 | 0.00 | 0.00 | 37 | 1007.8 |
| 20260504172548 | 66 | 100 | 5.0 | 18.0 | 0.00 | 0.00 | 0.00 | 37 | 1007.8 |
| 20260504172048 | 66 | 146 | 6.0 | 16.0 | 0.00 | 0.00 | 0.00 | 38 | 1007.8 |
| 20260504171559 | 66 | 176 | 5.0 | 16.0 | 0.00 | 0.00 | 0.00 | 35 | 1007.9 |
| 20260504171049 | 66 | 82 | 3.0 | 12.0 | 0.00 | 0.00 | 0.00 | 38 | 1007.9 |
| 20260504170548 | 66 | 114 | 2.0 | 12.0 | 0.00 | 0.00 | 0.00 | 38 | 1007.9 |
| 20260504151048 | 61 | 112 | 3.0 | 12.0 | 0.00 | 0.00 | 0.00 | 44 | 1009.3 |
| 20260504150548 | 60 | 252 | 4.0 | 12.0 | 0.00 | 0.00 | 0.00 | 45 | 1009.2 |
| 20260504141043 | 59 | 119 | 3.0 | 10.0 | 0.00 | 0.00 | 0.00 | 47 | 1009.6 |
| 20260504140549 | 59 | 152 | 3.0 | 14.0 | 0.00 | 0.00 | 0.00 | 49 | 1009.5 |
| 20260504130547 | 56 | 124 | 2.0 | 11.0 | 0.00 | 0.00 | 0.00 | 53 | 1010.0 |
| 20260504110545 | 38 | 0 | 0.0 | 1.0 | 0.00 | 0.00 | 0.00 | 86 | 1010.5 |
| 20260504110108 | 38 | 0 | 0.0 | 0.0 | 0.00 | 0.00 | 0.00 | 88 | 1010.5 |
| 20260504100547 | 35 | 0 | 0.0 | 2.0 | 0.00 | 0.00 | 0.00 | 88 | 1010.6 |
| 20260504081556 | 37 | 0 | 0.0 | 0.0 | 0.00 | 0.00 | 0.00 | 86 | 1010.2 |
| 20260504081047 | 37 | 0 | 0.0 | 0.0 | 0.00 | 0.00 | 0.00 | 86 | 1010.3 |
| 20260504080551 | 37 | 0 | 0.0 | 0.0 | 0.00 | 0.00 | 0.00 | 85 | 1010.3 |
| 20260504050548 | 33 | 0 | 0.0 | 0.0 | 0.00 | 0.00 | 0.00 | 89 | 1010.2 |
| 20260504045547 | 33 | 0 | 0.0 | 0.0 | 0.00 | 0.00 | 0.00 | 89 | 1010.3 |
| 20260504045048 | 32 | 0 | 0.0 | 0.0 | 0.00 | 0.00 | 0.00 | 89 | 1010.4 |
| 20260504044554 | 32 | 0 | 0.0 | 0.0 | 0.00 | 0.00 | 0.00 | 89 | 1010.4 |
| 20260504044048 | 32 | 0 | 0.0 | 0.0 | 0.00 | 0.00 | 0.00 | 90 | 1010.5 |
| 20260504043548 | 32 | 0 | 0.0 | 1.0 | 0.00 | 0.00 | 0.00 | 90 | 1010.7 |
| 20260504043058 | 31 | 0 | 0.0 | 1.0 | 0.00 | 0.00 | 0.00 | 90 | 1010.6 |
| 20260504042548 | 31 | 129 | 0.0 | 0.0 | 0.00 | 0.00 | 0.00 | 89 | 1010.5 |
| 20260504042047 | 31 | 0 | 0.0 | 1.0 | 0.00 | 0.00 | 0.00 | 89 | 1010.5 |
| 20260504041549 | 30 | 0 | 0.0 | 1.0 | 0.00 | 0.00 | 0.00 | 89 | 1010.4 |
| 20260504041048 | 30 | 129 | 0.0 | 1.0 | 0.00 | 0.00 | 0.00 | 89 | 1010.2 |
| 20260504040547 | 30 | 0 | 0.0 | 1.0 | 0.00 | 0.00 | 0.00 | 88 | 1010.1 |
| 20260504040054 | 30 | 0 | 0.0 | 1.0 | 0.00 | 0.00 | 0.00 | 88 | 1010.1 |
| 20260504035548 | 30 | 0 | 0.0 | 1.0 | 0.00 | 0.00 | 0.00 | 88 | 1010.3 |
| 20260504035048 | 30 | 0 | 0.0 | 1.0 | 0.00 | 0.00 | 0.00 | 88 | 1010.1 |
| 20260504034606 | 30 | 0 | 0.0 | 1.0 | 0.00 | 0.00 | 0.00 | 87 | 1010.0 |
| 20260504034050 | 30 | 0 | 0.0 | 1.0 | 0.00 | 0.00 | 0.00 | 87 | 1009.9 |
| 20260504033547 | 30 | 0 | 0.0 | 1.0 | 0.00 | 0.00 | 0.00 | 87 | 1009.9 |
| 20260504033051 | 30 | 0 | 0.0 | 1.0 | 0.00 | 0.00 | 0.00 | 87 | 1010.0 |
| 20260504032547 | 30 | 0 | 0.0 | 0.0 | 0.00 | 0.00 | 0.00 | 87 | 1010.0 |
| 20260504032048 | 30 | 0 | 0.0 | 0.0 | 0.00 | 0.00 | 0.00 | 86 | 1009.9 |
| 20260504031552 | 30 | 0 | 0.0 | 0.0 | 0.00 | 0.00 | 0.00 | 86 | 1009.8 |
| 20260504031048 | 31 | 0 | 0.0 | 0.0 | 0.00 | 0.00 | 0.00 | 85 | 1009.8 |
| 20260504030552 | 31 | 0 | 0.0 | 0.0 | 0.00 | 0.00 | 0.00 | 85 | 1009.8 |
| 20260504030054 | 31 | 0 | 0.0 | 0.0 | 0.00 | 0.00 | 0.00 | 85 | 1009.8 |
| 20260504025548 | 31 | 0 | 0.0 | 1.0 | 0.00 | 0.00 | 0.00 | 85 | 1009.9 |
| 20260504025048 | 31 | 0 | 0.0 | 1.0 | 0.00 | 0.00 | 0.00 | 84 | 1009.9 |
| 20260504024555 | 31 | 0 | 0.0 | 1.0 | 0.00 | 0.00 | 0.00 | 84 | 1009.7 |
| 20260504024050 | 31 | 129 | 0.0 | 1.0 | 0.00 | 0.00 | 0.00 | 84 | 1009.9 |
| 20260504023548 | 32 | 0 | 0.0 | 1.0 | 0.00 | 0.00 | 0.00 | 84 | 1009.7 |
| 20260504023049 | 32 | 0 | 0.0 | 1.0 | 0.00 | 0.00 | 0.00 | 84 | 1009.7 |
| 20260504022548 | 32 | 0 | 0.0 | 1.0 | 0.00 | 0.00 | 0.00 | 83 | 1009.8 |
| 20260504022047 | 32 | 0 | 0.0 | 1.0 | 0.00 | 0.00 | 0.00 | 82 | 1009.9 |
| 20260504021553 | 32 | 0 | 0.0 | 1.0 | 0.00 | 0.00 | 0.00 | 82 | 1009.9 |
| 20260504021052 | 32 | 0 | 0.0 | 0.0 | 0.00 | 0.00 | 0.00 | 82 | 1009.7 |
| 20260504020552 | 33 | 0 | 0.0 | 0.0 | 0.00 | 0.00 | 0.00 | 82 | 1009.8 |
| 20260504020056 | 33 | 0 | 0.0 | 0.0 | 0.00 | 0.00 | 0.00 | 81 | 1009.7 |
| 20260504015548 | 33 | 0 | 0.0 | 0.0 | 0.00 | 0.00 | 0.00 | 81 | 1009.7 |
| 20260504015048 | 33 | 0 | 0.0 | 0.0 | 0.00 | 0.00 | 0.00 | 80 | 1009.6 |
| 20260504014548 | 34 | 0 | 0.0 | 0.0 | 0.00 | 0.00 | 0.00 | 80 | 1009.6 |
| 20260504014047 | 34 | 0 | 0.0 | 0.0 | 0.00 | 0.00 | 0.00 | 80 | 1009.6 |
| 20260504013548 | 34 | 0 | 0.0 | 0.0 | 0.00 | 0.00 | 0.00 | 79 | 1009.6 |
| 20260504013113 | 34 | 0 | 0.0 | 0.0 | 0.00 | 0.00 | 0.00 | 79 | 1009.6 |
| 20260504012548 | 35 | 0 | 0.0 | 0.0 | 0.00 | 0.00 | 0.00 | 78 | 1009.6 |
| 20260504012048 | 35 | 0 | 0.0 | 0.0 | 0.00 | 0.00 | 0.00 | 77 | 1009.5 |
| 20260504011553 | 35 | 0 | 0.0 | 0.0 | 0.00 | 0.00 | 0.00 | 76 | 1009.4 |
| 20260504011047 | 36 | 0 | 0.0 | 0.0 | 0.00 | 0.00 | 0.00 | 75 | 1009.4 |
| 20260504010548 | 36 | 0 | 0.0 | 0.0 | 0.00 | 0.00 | 0.00 | 75 | 1009.3 |
| 20260504010058 | 36 | 0 | 0.0 | 0.0 | 0.00 | 0.00 | 0.00 | 74 | 1009.3 |
| 20260504005547 | 36 | 0 | 0.0 | 0.0 | 0.00 | 0.00 | 0.00 | 74 | 1009.2 |
| 20260504005047 | 37 | 0 | 0.0 | 0.0 | 0.00 | 0.00 | 0.00 | 73 | 1009.1 |
| 20260504004551 | 37 | 0 | 0.0 | 0.0 | 0.00 | 0.00 | 0.00 | 72 | 1009.0 |
| 20260504004049 | 37 | 0 | 0.0 | 0.0 | 0.00 | 0.00 | 0.00 | 71 | 1009.0 |
| 20260504003548 | 38 | 0 | 0.0 | 0.0 | 0.00 | 0.00 | 0.00 | 71 | 1009.0 |
| 20260504003051 | 39 | 0 | 0.0 | 0.0 | 0.00 | 0.00 | 0.00 | 70 | 1008.8 |
| 20260504002547 | 39 | 0 | 0.0 | 0.0 | 0.00 | 0.00 | 0.00 | 69 | 1008.8 |
| 20260504002048 | 40 | 0 | 0.0 | 0.0 | 0.00 | 0.00 | 0.00 | 68 | 1008.7 |
| 20260504001550 | 41 | 0 | 0.0 | 0.0 | 0.00 | 0.00 | 0.00 | 65 | 1008.6 |
| 20260504001050 | 41 | 0 | 0.0 | 0.0 | 0.00 | 0.00 | 0.00 | 63 | 1008.5 |
| 20260504000548 | 42 | 0 | 0.0 | 0.0 | 0.00 | 0.00 | 0.00 | 61 | 1008.4 |
| 20260504000050 | 42 | 0 | 0.0 | 0.0 | 0.00 | 0.00 | 0.00 | 59 | 1008.5 |
| 20260503235549 | 43 | 0 | 0.0 | 0.0 | 0.00 | 0.00 | 0.00 | 57 | 1008.3 |
| 20260503235048 | 44 | 0 | 0.0 | 0.0 | 0.00 | 0.00 | 0.00 | 55 | 1008.3 |
| 20260503234553 | 44 | 0 | 0.0 | 2.0 | 0.00 | 0.00 | 0.00 | 54 | 1008.4 |
| 20260503234047 | 45 | 0 | 0.0 | 3.0 | 0.00 | 0.00 | 0.00 | 53 | 1008.5 |
| 20260503233549 | 46 | 0 | 0.0 | 3.0 | 0.00 | 0.00 | 0.00 | 52 | 1008.3 |
| 20260503233050 | 46 | 137 | 0.0 | 0.0 | 0.00 | 0.00 | 0.00 | 50 | 1008.1 |
| 20260503232547 | 46 | 0 | 0.0 | 3.0 | 0.00 | 0.00 | 0.00 | 50 | 1008.2 |
| 20260503232047 | 47 | 297 | 0.0 | 3.0 | 0.00 | 0.00 | 0.00 | 49 | 1008.1 |
| 20260503231552 | 47 | 122 | 0.0 | 4.0 | 0.00 | 0.00 | 0.00 | 48 | 1008.0 |
| 20260503231047 | 47 | 0 | 1.0 | 4.0 | 0.00 | 0.00 | 0.00 | 48 | 1007.9 |
| 20260503230550 | 48 | 0 | 1.0 | 6.0 | 0.00 | 0.00 | 0.00 | 48 | 1008.0 |
| 20260503230058 | 48 | 0 | 0.0 | 6.0 | 0.00 | 0.00 | 0.00 | 47 | 1007.8 |
| 20260503225547 | 48 | 275 | 2.0 | 4.0 | 0.00 | 0.00 | 0.00 | 46 | 1007.8 |
| 20260503225048 | 49 | 127 | 0.0 | 4.0 | 0.00 | 0.00 | 0.00 | 46 | 1007.7 |
| 20260503224601 | 49 | 123 | 1.0 | 5.0 | 0.00 | 0.00 | 0.00 | 46 | 1007.7 |
| 20260503224048 | 49 | 0 | 0.0 | 5.0 | 0.00 | 0.00 | 0.00 | 47 | 1007.7 |
| 20260503223758 | 49 | 126 | 2.0 | 6.0 | 0.00 | 0.00 | 0.00 | 46 | 1007.6 |
| 20260503223057 | 49 | 141 | 1.0 | 6.0 | 0.00 | 0.00 | 0.00 | 47 | 1007.7 |
| 20260503222546 | 49 | 141 | 2.0 | 6.0 | 0.00 | 0.00 | 0.00 | 47 | 1007.6 |
| 20260503222049 | 49 | 179 | 2.0 | 6.0 | 0.00 | 0.00 | 0.00 | 49 | 1007.5 |
| 20260503221604 | 50 | 130 | 0.0 | 5.0 | 0.00 | 0.00 | 0.00 | 49 | 1007.6 |
| 20260503221051 | 50 | 139 | 1.0 | 5.0 | 0.00 | 0.00 | 0.00 | 47 | 1007.4 |
| 20260503220547 | 50 | 131 | 0.0 | 5.0 | 0.00 | 0.00 | 0.00 | 48 | 1007.5 |
| 20260503220058 | 49 | 114 | 1.0 | 5.0 | 0.00 | 0.00 | 0.00 | 47 | 1007.4 |
| 20260503215548 | 49 | 0 | 0.0 | 5.0 | 0.00 | 0.00 | 0.00 | 49 | 1007.6 |
| 20260503215047 | 49 | 0 | 0.0 | 8.0 | 0.00 | 0.00 | 0.00 | 47 | 1007.6 |
| 20260503214554 | 49 | 214 | 1.0 | 8.0 | 0.00 | 0.00 | 0.00 | 47 | 1007.5 |
| 20260503214047 | 49 | 108 | 1.0 | 10.0 | 0.00 | 0.00 | 0.00 | 46 | 1007.5 |
| 20260503213550 | 49 | 123 | 2.0 | 10.0 | 0.00 | 0.00 | 0.00 | 47 | 1007.4 |
| 20260503213052 | 49 | 0 | 4.0 | 10.0 | 0.00 | 0.00 | 0.00 | 46 | 1007.4 |
| 20260503212547 | 49 | 86 | 2.0 | 7.0 | 0.00 | 0.00 | 0.00 | 48 | 1007.3 |
| 20260503212048 | 49 | 113 | 0.0 | 8.0 | 0.00 | 0.00 | 0.00 | 48 | 1007.1 |
| 20260503211552 | 48 | 103 | 2.0 | 8.0 | 0.00 | 0.00 | 0.00 | 48 | 1007.1 |
| 20260503211050 | 49 | 208 | 2.0 | 8.0 | 0.00 | 0.00 | 0.00 | 48 | 1007.1 |
| 20260503210548 | 49 | 219 | 0.0 | 7.0 | 0.00 | 0.00 | 0.00 | 49 | 1006.9 |
| 20260503210049 | 48 | 117 | 1.0 | 7.0 | 0.00 | 0.00 | 0.00 | 51 | 1007.0 |
| 20260503205549 | 48 | 170 | 1.0 | 7.0 | 0.00 | 0.00 | 0.00 | 49 | 1007.0 |
| 20260503205047 | 48 | 104 | 1.0 | 5.0 | 0.00 | 0.00 | 0.00 | 50 | 1006.9 |
| 20260503204620 | 48 | 136 | 0.0 | 6.0 | 0.00 | 0.00 | 0.00 | 50 | 1006.9 |
| 20260503204048 | 48 | 0 | 1.0 | 6.0 | 0.00 | 0.00 | 0.00 | 51 | 1006.9 |
| 20260503203548 | 48 | 98 | 1.0 | 10.0 | 0.00 | 0.00 | 0.00 | 49 | 1006.8 |
| 20260503203057 | 48 | 134 | 2.0 | 10.0 | 0.00 | 0.00 | 0.00 | 49 | 1006.8 |
| 20260503202549 | 49 | 123 | 3.0 | 10.0 | 0.00 | 0.00 | 0.00 | 49 | 1006.8 |
| 20260503202047 | 49 | 160 | 2.0 | 10.0 | 0.00 | 0.00 | 0.00 | 48 | 1006.7 |
| 20260503201555 | 49 | 121 | 3.0 | 10.0 | 0.00 | 0.00 | 0.00 | 47 | 1006.7 |
| 20260503201046 | 49 | 215 | 2.0 | 7.0 | 0.00 | 0.00 | 0.00 | 50 | 1006.5 |
| 20260503200548 | 50 | 120 | 2.0 | 9.0 | 0.00 | 0.00 | 0.00 | 47 | 1006.6 |
| 20260503200057 | 50 | 122 | 2.0 | 9.0 | 0.00 | 0.00 | 0.00 | 47 | 1006.5 |
| 20260503195547 | 50 | 124 | 3.0 | 9.0 | 0.00 | 0.01 | 0.00 | 46 | 1006.5 |
| 20260503195047 | 50 | 259 | 2.0 | 12.0 | 0.00 | 0.01 | 0.00 | 46 | 1006.6 |
| 20260503194600 | 50 | 105 | 1.0 | 12.0 | 0.00 | 0.01 | 0.00 | 51 | 1006.5 |
| 20260503194047 | 49 | 88 | 2.0 | 12.0 | 0.00 | 0.01 | 0.00 | 47 | 1006.7 |
| 20260503193547 | 49 | 136 | 4.0 | 12.0 | 0.00 | 0.01 | 0.00 | 48 | 1006.6 |
| 20260503193106 | 49 | 119 | 3.0 | 8.0 | 0.00 | 0.01 | 0.00 | 47 | 1006.6 |
| 20260503192548 | 49 | 229 | 3.0 | 8.0 | 0.00 | 0.01 | 0.00 | 50 | 1006.4 |
| 20260503192048 | 50 | 122 | 2.0 | 6.0 | 0.00 | 0.01 | 0.00 | 47 | 1006.5 |
| 20260503191609 | 50 | 138 | 1.0 | 5.0 | 0.00 | 0.01 | 0.00 | 49 | 1006.4 |
| 20260503191047 | 50 | 205 | 2.0 | 12.0 | 0.00 | 0.01 | 0.00 | 51 | 1006.4 |
| 20260503190547 | 50 | 132 | 3.0 | 12.0 | 0.00 | 0.01 | 0.00 | 50 | 1006.5 |
| 20260503190052 | 50 | 111 | 3.0 | 12.0 | 0.00 | 0.01 | 0.00 | 48 | 1006.5 |
| 20260503185548 | 50 | 110 | 3.0 | 10.0 | 0.00 | 0.07 | 0.00 | 51 | 1006.5 |
| 20260503185047 | 50 | 64 | 3.0 | 9.0 | 0.00 | 0.07 | 0.00 | 49 | 1006.7 |
| 20260503184551 | 50 | 98 | 2.0 | 12.0 | 0.00 | 0.07 | 0.00 | 47 | 1006.5 |
| 20260503184051 | 51 | 117 | 2.0 | 12.0 | 0.00 | 0.07 | 0.00 | 47 | 1006.5 |
| 20260503183549 | 51 | 182 | 4.0 | 12.0 | 0.00 | 0.07 | 0.00 | 48 | 1006.6 |
| 20260503183053 | 51 | 139 | 2.0 | 9.0 | 0.00 | 0.07 | 0.00 | 49 | 1006.5 |
| 20260503182548 | 50 | 179 | 4.0 | 15.0 | 0.00 | 0.07 | 0.00 | 52 | 1006.5 |
| 20260503182052 | 50 | 115 | 3.0 | 15.0 | 0.00 | 0.07 | 0.00 | 52 | 1006.4 |
| 20260503181552 | 50 | 121 | 2.0 | 7.0 | 0.00 | 0.07 | 0.00 | 53 | 1006.6 |
| 20260503181048 | 50 | 123 | 3.0 | 8.0 | 0.00 | 0.07 | 0.00 | 52 | 1006.5 |
| 20260503180550 | 49 | 109 | 3.0 | 15.0 | 0.00 | 0.07 | 0.00 | 51 | 1006.4 |
| 20260503180058 | 49 | 112 | 4.0 | 15.0 | 0.00 | 0.07 | 0.00 | 51 | 1006.5 |
| 20260503175548 | 49 | 139 | 2.0 | 15.0 | 0.00 | 0.20 | 0.00 | 51 | 1006.4 |